2009 QH6
ephemeris date magn radius delta ra dec elong phase
Today19 Oct 202525.61.231 AU1.834 AU16h01m-28°04'39.0°30.6°
2009 QH6 - 2025-10-19
astro.vanbuitenen.nl


 
-1 year
-1 month
-1 day
Now
+1 day
+1 month
+1 year

The interactive orbit chart above shows the body's path through the solar system and its position at the given date. Green and blue lines are shown perpendicular to the ecliptic plane: Green if the path is above the ecliptic plane, blue if it is below. (Left-click and drag to rotate the view; Right-click and drag to move the view; Use scroll wheel to zoom in our out.)

The orbital elements of 2009 QH6 are:

            e (Eccentricity)                : 0.1878912
            a (Semimajor axis)              : 1.0601970
            i (Inclination)                 : 14.27906
            Ω (Longitude of ascending node) : 323.73739
            ω (Argument of perihelion)      : 104.42233
            M (Mean anomaly)                : 65.54022
            Epoch                           : 2025 May 05

            L (Longitude of perihelion)     : 248.59943
            B (Latitude of perihelion)      : 13.81998
            P (Orbital period in years)     : 1.09            
        

The light curve chart below shows the estimated development of the minor planet's magnitude.


The all-sky chart below shows the path of the minor planet over the same period as the light curve. The current position is marked yellow.





The following chart shows the path of the minor planet in the next few days. The field of view is optimized for (~10x50) binoculars and finderscopes.




Ephemerides:
Date       Time       RA (2000)    DEC (2000)    delta   radius  elong  phase   PA    magn
2025-10-19 00:00 UT   16 01 30.8   -28 04 28     1.834    1.231   39.0   30.6   111   25.6 
2025-10-19 02:05 UT   16 01 49.4   -28 04 49     1.834    1.231   39.0   30.6   110   25.6 
2025-10-20 00:00 UT   16 05 05.7   -28 08 30     1.836    1.230   38.8   30.5   110   25.6 
2025-10-21 00:00 UT   16 08 41.1   -28 12 15     1.838    1.228   38.6   30.4   110   25.6 
2025-10-22 00:00 UT   16 12 16.9   -28 15 42     1.841    1.227   38.4   30.2   109   25.6 
2025-10-23 00:00 UT   16 15 53.2   -28 18 50     1.843    1.225   38.2   30.1   109   25.6 
2025-10-24 00:00 UT   16 19 29.8   -28 21 39     1.845    1.224   37.9   30.0   109   25.6 
2025-10-25 00:00 UT   16 23 06.9   -28 24 10     1.847    1.222   37.7   29.9   108   25.6 
2025-10-26 00:00 UT   16 26 44.3   -28 26 22     1.849    1.221   37.5   29.7   108   25.6 
2025-10-27 00:00 UT   16 30 22.2   -28 28 15     1.850    1.219   37.3   29.6   107   25.6 
2025-10-28 00:00 UT   16 34 00.3   -28 29 49     1.852    1.218   37.1   29.5   107   25.6 
2025-10-29 00:00 UT   16 37 38.8   -28 31 03     1.854    1.216   36.9   29.4   107   25.5 


    Terminology:
            
    delta:  distance between minor planet and earth in AU
    radius: distance between minor planet and sun in AU
    magn:   magnitude (brightness) estimate    
    ra:     right ascension in hours (24h = 360deg)
    dec:    declination in degrees
    elong:  elongation in degrees (angle sun-earth-minor planet)    
    phase:  phase angle in degrees (angle sun-minor planet-earth)        
    AU:     Astronomical Unit (mean distance between earth and sun: 149597870.7 km
    

Orbital elements provided by the MPC (Minor Planet Center).
Calculations by a modified version of AAPlus, a C# implementation of the AA+ project by PJ Naughter from the algorithms presented in the book "Astronomical Algorithms" by Jean Meeus.
NGC2000 dso catalog and star labels from VizieR as provided by the Strasbourg astronomical Data Center.
Tycho2 catalog from the ESO archive.